Regional Weather Roundup
Issued by NWS

Home | Current Version | Previous Version | Text Only | Print | Product List | Glossary On
Versions: 1 2 3 4 5 6 7 8 9 10 11 12 13 14 15 16 17 18 19 20 21 22 23 24 25 26 27 28 29 30 31 32 33 34 35 36 37 38 39 40 41 42 43 44 45 46 47 48 49 50
000
ASUS43 KMKX 211811
RWRWI

WISCONSIN REGIONAL WEATHER ROUNDUP
NATIONAL WEATHER SERVICE MILWAUKEE/SULLIVAN WI
1200 PM CST TUE NOV 21 2017

NOTE: "FAIR" INDICATES FEW OR NO CLOUDS BELOW 12,000 FEET WITH NO
SIGNIFICANT WEATHER AND/OR OBSTRUCTIONS TO VISIBILITY.

WIZ001-002-006>008-014>016-023>028-211900-
NORTHWEST WISCONSIN

CITY           SKY/WX    TMP DP  RH WIND       PRES   REMARKS
SUPERIOR ARPT  SUNNY     26   9  48 NW15G23   30.03R WCI  13
6HR MIN TEMP:  22; 6HR MAX TEMP:  26;

ASHLAND        CLOUDY    23   9  55 NW22G30   29.97R WCI   8
6HR MIN TEMP:  23; 6HR MAX TEMP:  26; 6HR PCP: TRACE;

HAYWARD        CLOUDY    23   9  55 NW10G21   29.97R WCI  12
6HR MIN TEMP:  22; 6HR MAX TEMP:  26; 6HR PCP: TRACE;

SIREN          PTSUNNY   26  11  54 N16G23    30.03R WCI  13
6HR MIN TEMP:  22; 6HR MAX TEMP:  26;

CUMBERLAND     CLOUDY    25  10  54 NW16G26   29.98R WCI  12
RICE LAKE      CLOUDY    26  12  56 NW15G23   30.00R WCI  13
6HR MIN TEMP:  23; 6HR MAX TEMP:  27;

CHETEK         CLOUDY    26  13  58 NW8G21    29.98R WCI  17
6HR MIN TEMP:  23; 6HR MAX TEMP:  27;

LADYSMITH      CLOUDY    26  13  57 NW20G25   29.95R WCI  13
6HR MIN TEMP:  24; 6HR MAX TEMP:  30;

EAU CLAIRE     CLOUDY    26  11  52 NW16G26   29.99R WCI  14
6HR MIN TEMP:  25; 6HR MAX TEMP:  27; 6HR PCP: TRACE;

MENOMONIE      MOSUNNY   27  12  52 W17G26    30.00S WCI  15
6HR MIN TEMP:  26; 6HR MAX TEMP:  28;

NEW RICHMOND   CLOUDY    26  12  55 NW20G25   30.04R WCI  12
6HR MIN TEMP:  23; 6HR MAX TEMP:  26;

OSCEOLA        CLOUDY    26  14  59 NW12G23   30.08R WCI  16
6HR MIN TEMP:  23; 6HR MAX TEMP:  27;

$$

WIZ003>005-009-010-017-018-211900-
NORTH CENTRAL WISCONSIN

CITY           SKY/WX    TMP DP  RH WIND       PRES   REMARKS
MANITOWISH WTR LGT SNOW  21  19  91 NW9G21    29.84R WCI  10
6HR MIN TEMP:  21; 6HR MAX TEMP:  26;

ARBOR VITAE    LGT SNOW  24  18  77 NW16G25   29.83R WCI  11
6HR MIN TEMP:  23; 6HR MAX TEMP:  29;

WOODRUFF       LGT SNOW  24  18  77 NW16G25   29.83R WCI  11
6HR MIN TEMP:  23; 6HR MAX TEMP:  29;

RHINELANDER    CLOUDY    25  14  63 NW9G24    29.82R WCI  15
6HR MIN TEMP:  24; 6HR MAX TEMP:  30; 6HR PCP: TRACE;

EAGLE RIVER    LGT SNOW  23  16  73 NW15G23   29.80R WCI  10
6HR MIN TEMP:  23; 6HR MAX TEMP:  29;

LAND O LAKES   LGT SNOW  23  17  80 NW12G22   29.81R WCI  11
6HR MIN TEMP:  23; 6HR MAX TEMP:  30;

PHILLIPS       FLURRIES  23  15  72 NW13G18   29.88R WCI  11
6HR MIN TEMP:  22; 6HR MAX TEMP:  29;

TOMAHAWK       LGT SNOW  24  14  67 NW13G23   29.86R WCI  12
6HR MIN TEMP:  24; 6HR MAX TEMP:  30;

MEDFORD        CLOUDY    24  11  57 NW20G25   29.87R WCI  10
6HR MIN TEMP:  23; 6HR MAX TEMP:  31;

MERRILL        CLOUDY    26  11  54 NW16G24   29.86R WCI  13
6HR MIN TEMP:  25; 6HR MAX TEMP:  33;

$$

WIZ029-030-035-036-043>047-211900-
CENTRAL WISCONSIN

CITY           SKY/WX    TMP DP  RH WIND       PRES   REMARKS
WAUSAU         CLOUDY    26  11  52 NW17G29   29.85R WCI  13
6HR MIN TEMP:  26; 6HR MAX TEMP:  34;

MOSINEE        CLOUDY    27  12  54 NW20G26   29.88R WCI  13
MARSHFIELD     CLOUDY    26  11  52 NW29G37   29.88R WCI  10
6HR MIN TEMP:  25; 6HR MAX TEMP:  32; 6HR PCP: TRACE;

STEVENS POINT  CLOUDY    26  12  54 NW12G23   29.87R WCI  16
6HR MIN TEMP:  26; 6HR MAX TEMP:  33;

WAUPACA        CLOUDY    33  17  51 W14G23    29.85R WCI  23
6HR MIN TEMP:  33; 6HR MAX TEMP:  40;

WAUTOMA        CLOUDY    30  16  56 NW18G30   29.88R WCI  18
6HR MIN TEMP:  30; 6HR MAX TEMP:  39;

WISC RAPIDS    CLOUDY    28  12  51 NW24G32   29.90R WCI  14
6HR MIN TEMP:  28; 6HR MAX TEMP:  36;

CAMP DOUGLAS   PTSUNNY   32  12  43 NW17G25   29.91R WCI  21
$$

WIZ011>013-019>022-031-037>040-048>050-211900-
NORTHEAST WISCONSIN

CITY           SKY/WX    TMP DP  RH WIND       PRES   REMARKS
ANTIGO         CLOUDY    25  12  57 NW21G32   29.82R WCI  11
6HR MIN TEMP:  25; 6HR MAX TEMP:  32;

SHAWANO        CLOUDY    33  14  45 NW15G25   29.82R WCI  23
6HR MIN TEMP:  33; 6HR MAX TEMP:  39;

OCONTO         CLOUDY    32  15  48 NW12G25   29.80R WCI  23
6HR MIN TEMP:  32; 6HR MAX TEMP:  38;

STURGEON BAY   CLOUDY    33  18  53 NW16      29.78R WCI  23
6HR MIN TEMP:  33; 6HR MAX TEMP:  41;

GREEN BAY      CLOUDY    33  20  58 NW23      29.81R WCI  21
6HR MIN TEMP:  33; 6HR MAX TEMP:  40;

MANITOWOC      CLOUDY    35  20  54 W16       29.80R WCI  25
6HR MIN TEMP:  35; 6HR MAX TEMP:  44;

APPLETON       CLOUDY    32  14  47 W22G29    29.79R WCI  19
CLINTONVILLE   CLOUDY    32  10  40 NW17G26   29.83R WCI  21
OSHKOSH        CLOUDY    32  18  56 NW17G31   29.82R WCI  21
6HR MIN TEMP:  32; 6HR MAX TEMP:  41;

$$

WIZ032>034-041-042-053>061-211900-
SOUTHWEST WISCONSIN

CITY           SKY/WX    TMP DP  RH WIND       PRES   REMARKS
LA CROSSE      PTSUNNY   33  15  47 NW22G28   29.98R WCI  21
6HR MIN TEMP:  31; 6HR MAX TEMP:  36;

SPARTA         CLOUDY    30  14  50 NW18G25   29.96R WCI  18
6HR MIN TEMP:  28; 6HR MAX TEMP:  35;

VIROQUA        CLOUDY    29  18  61 NW21G26   29.92R WCI  16
6HR MIN TEMP:  28; 6HR MAX TEMP:  35;

BOSCOBEL       CLOUDY    33  17  51 NW18G28   29.96R WCI  22
6HR MIN TEMP:  32; 6HR MAX TEMP:  42;

PRAIRIE DU CHI CLOUDY    32  16  51 NW18G28   29.97R WCI  20
6HR MIN TEMP:  30; 6HR MAX TEMP:  39;

PLATTEVILLE    CLOUDY    32  20  62 NW14G25   29.93R WCI  22
6HR MIN TEMP:  31; 6HR MAX TEMP:  40;

$$

WIZ056-057-062-063-064-067-068-211900-
SOUTH CENTRAL WISCONSIN

CITY           SKY/WX    TMP DP  RH WIND       PRES   REMARKS
REEDSBURG      CLOUDY    31  15  51 NW18G24   29.89R WCI  19
6HR MIN TEMP:  29; 6HR MAX TEMP:  40;

BARABOO/DELLS  PTSUNNY   31  13  46 NW12G23   29.89R WCI  22
6HR MIN TEMP:  29; 6HR MAX TEMP:  40;

LONE ROCK      CLOUDY    33  18  53 NW17G28   29.92R WCI  22
6HR MIN TEMP:  32; 6HR MAX TEMP:  42;

MINERAL POINT  CLOUDY    32  19  59 NW14G24   29.89S WCI  22
MADISON        CLOUDY    32  15  49 NW15G26   29.88R WCI  22
6HR MIN TEMP:  31; 6HR MAX TEMP:  43;

MIDDLETON      CLOUDY    33  18  54 NW14G25   29.88R WCI  24
6HR MIN TEMP:  32; 6HR MAX TEMP:  44;

WATERTOWN      CLOUDY    31  16  52 NW20G28   29.87R WCI  19
6HR MIN TEMP:  31; 6HR MAX TEMP:  43;

MONROE         CLOUDY    32  18  55 NW16G24   29.87R WCI  21
JANESVILLE     PTSUNNY   37  19  48 NW15G21   29.85R WCI  28
$$

WIZ051-052-058>065-066-070>072-211900-
SOUTHEAST WISCONSIN

CITY           SKY/WX    TMP DP  RH WIND       PRES   REMARKS
MILWAUKEE      CLOUDY    40  18  41 NW14      29.82R WCI  32
6HR MIN TEMP:  39; 6HR MAX TEMP:  46;

WAUKESHA       MOSUNNY   30  16  55 W25G32    29.84R WCI  16
MILWAUKEE/TIMM SUNNY     36  18  48 NW17      29.82R WCI  25
RACINE         CLOUDY    40  17  39 NW17G30   29.82R WCI  31
6HR MIN TEMP:  40; 6HR MAX TEMP:  45;

BURLINGTON     CLOUDY    40  24  53 NW22      29.83R WCI  30
6HR MIN TEMP:  40; 6HR MAX TEMP:  45;

KENOSHA        CLOUDY    41  17  38 NW15G24   29.80R
6HR MIN TEMP:  41; 6HR MAX TEMP:  45;

FOND DU LAC    CLOUDY    33  16  49 NW18G26   29.84R WCI  22
6HR MIN TEMP:  33; 6HR MAX TEMP:  43;

SHEBOYGAN      CLOUDY    35  20  54 NW16G28   29.81R WCI  25
6HR MIN TEMP:  35; 6HR MAX TEMP:  45;

WEST BEND      CLOUDY    32  18  55 NW17G23   29.83R WCI  21
JUNEAU         CLOUDY    30  16  56 W12G21    29.87R WCI  20
6HR MIN TEMP:  30; 6HR MAX TEMP:  41;

$$

LSZ147-162-211900-
LAKE SUPERIOR

STATION/POSITION TIME  TEMP    WIND        PRES    WAVE
                       AIR SEA DIR/SP/G            HT/PER
                 (UTC) (F)     (DEG/KT/KT) (MB)    (FT/S)
DEVILS ISLAND    1800   22     330/ 22/ 26 1016.3R
SAXON HARBOR     1730   26     330/ 19/ 26 1013.2R
$$

LMZ867-665-643>646-211900-
LAKE MICHIGAN

STATION/POSITION TIME  TEMP    WIND        PRES    WAVE
                       AIR SEA DIR/SP/G            HT/PER
                 (UTC) (F)     (DEG/KT/KT) (MB)    (FT/S)
N MID LAKE BUOY  1750


USA.gov is the U.S. government's official web portal to all federal, state and local government web resources and services.